Time,TemperatureF,DewpointF,PressureIn,WindDirection,WindDirectionDegrees,WindSpeedMPH,WindSpeedGustMPH,Humidity,HourlyPrecipIn,Conditions,Clouds,dailyrainin,SolarRadiationWatts/m^2,SoftwareType,DateUTC
2013-10-10 00:01:00,50.1,48.7,30.16,ESE,117,0.0,0.0,95,0.00,,,0.00,0,HR-IXPWINDi_r2_v1.2.,2013-10-10 04:01:00,
2013-10-10 00:06:00,49.9,48.7,30.16,ESE,117,0.0,0.0,96,0.00,,,0.00,0,HR-IXPWINDi_r2_v1.2.,2013-10-10 04:06:00,
2013-10-10 00:11:00,50.1,48.9,30.16,ESE,117,0.0,0.0,96,0.00,,,0.00,0,HR-IXPWINDi_r2_v1.2.,2013-10-10 04:11:00,
2013-10-10 00:16:00,50.0,48.8,30.16,ESE,117,0.0,0.0,96,0.00,,,0.00,0,HR-IXPWINDi_r2_v1.2.,2013-10-10 04:16:00,
2013-10-10 00:21:00,49.9,48.7,30.16,ESE,117,0.0,0.0,96,0.00,,,0.00,0,HR-IXPWINDi_r2_v1.2.,2013-10-10 04:21:00,
2013-10-10 00:26:00,49.6,48.4,30.16,ESE,117,0.0,0.0,96,0.00,,,0.00,0,HR-IXPWINDi_r2_v1.2.,2013-10-10 04:26:00,
2013-10-10 00:32:00,49.4,48.2,30.16,ESE,117,0.0,0.0,96,0.00,,,0.00,0,HR-IXPWINDi_r2_v1.2.,2013-10-10 04:32:00,
2013-10-10 00:37:00,49.1,47.9,30.16,ESE,117,0.0,0.0,96,0.00,,,0.00,0,HR-IXPWINDi_r2_v1.2.,2013-10-10 04:37:00,
2013-10-10 00:42:00,49.3,48.1,30.16,ESE,117,0.0,0.0,96,0.00,,,0.00,0,HR-IXPWINDi_r2_v1.2.,2013-10-10 04:42:00,
2013-10-10 00:47:00,49.2,48.0,30.16,ESE,117,0.0,0.0,96,0.00,,,0.00,0,HR-IXPWINDi_r2_v1.2.,2013-10-10 04:47:00,
2013-10-10 00:52:00,49.2,48.0,30.16,ESE,117,0.0,0.0,96,0.00,,,0.00,0,HR-IXPWINDi_r2_v1.2.,2013-10-10 04:52:00,
2013-10-10 00:57:00,48.9,47.7,30.16,ESE,117,0.0,0.0,96,0.00,,,0.00,0,HR-IXPWINDi_r2_v1.2.,2013-10-10 04:57:00,
2013-10-10 01:02:00,48.8,47.6,30.15,ESE,117,0.0,0.0,96,0.00,,,0.00,0,HR-IXPWINDi_r2_v1.2.,2013-10-10 05:02:00,
2013-10-10 01:08:00,48.6,47.4,30.15,ESE,117,0.0,0.0,96,0.00,,,0.00,0,HR-IXPWINDi_r2_v1.2.,2013-10-10 05:08:00,
2013-10-10 01:13:00,48.8,47.6,30.15,ESE,117,0.0,0.0,96,0.00,,,0.00,0,HR-IXPWINDi_r2_v1.2.,2013-10-10 05:13:00,
2013-10-10 01:18:00,48.7,47.5,30.15,ESE,117,0.0,0.0,96,0.00,,,0.00,0,HR-IXPWINDi_r2_v1.2.,2013-10-10 05:18:00,
2013-10-10 01:23:00,48.5,47.3,30.15,ESE,117,0.0,0.0,96,0.00,,,0.00,0,HR-IXPWINDi_r2_v1.2.,2013-10-10 05:23:00,
2013-10-10 01:28:00,48.2,47.1,30.15,ESE,117,0.0,0.0,96,0.00,,,0.00,0,HR-IXPWINDi_r2_v1.2.,2013-10-10 05:28:00,
2013-10-10 01:33:00,48.4,47.2,30.14,ESE,117,0.0,0.0,96,0.00,,,0.00,0,HR-IXPWINDi_r2_v1.2.,2013-10-10 05:33:00,
2013-10-10 01:38:00,48.1,47.0,30.14,ESE,117,0.0,0.0,96,0.00,,,0.00,0,HR-IXPWINDi_r2_v1.2.,2013-10-10 05:38:00,
2013-10-10 01:43:00,47.9,46.8,30.14,ESE,117,0.0,0.0,96,0.00,,,0.00,0,HR-IXPWINDi_r2_v1.2.,2013-10-10 05:43:00,
2013-10-10 01:49:00,47.7,46.6,30.14,ESE,117,0.0,0.0,96,0.00,,,0.00,0,HR-IXPWINDi_r2_v1.2.,2013-10-10 05:49:00,
2013-10-10 01:54:00,47.8,46.7,30.14,ESE,117,0.0,0.0,96,0.00,,,0.00,0,HR-IXPWINDi_r2_v1.2.,2013-10-10 05:54:00,
2013-10-10 01:59:00,47.8,46.7,30.14,ESE,117,0.0,0.0,96,0.00,,,0.00,0,HR-IXPWINDi_r2_v1.2.,2013-10-10 05:59:00,
2013-10-10 02:05:00,48.0,46.9,30.14,ESE,117,0.0,0.0,96,0.00,,,0.00,0,HR-IXPWINDi_r2_v1.2.,2013-10-10 06:05:00,
2013-10-10 02:10:00,47.7,46.6,30.14,ESE,117,0.0,0.0,96,0.00,,,0.00,0,HR-IXPWINDi_r2_v1.2.,2013-10-10 06:10:00,
2013-10-10 02:15:00,47.3,46.2,30.14,ESE,117,0.0,0.0,96,0.00,,,0.00,0,HR-IXPWINDi_r2_v1.2.,2013-10-10 06:15:00,
2013-10-10 02:20:00,47.3,46.2,30.14,ESE,117,0.0,0.0,96,0.00,,,0.00,0,HR-IXPWINDi_r2_v1.2.,2013-10-10 06:20:00,
2013-10-10 02:25:00,47.3,46.2,30.14,ESE,117,0.0,0.0,96,0.00,,,0.00,0,HR-IXPWINDi_r2_v1.2.,2013-10-10 06:25:00,
2013-10-10 02:30:00,46.9,45.5,30.14,ESE,117,0.0,0.0,95,0.00,,,0.00,0,HR-IXPWINDi_r2_v1.2.,2013-10-10 06:30:00,
2013-10-10 02:35:00,46.7,45.6,30.14,ESE,117,0.0,0.0,96,0.00,,,0.00,0,HR-IXPWINDi_r2_v1.2.,2013-10-10 06:35:00,
2013-10-10 02:40:00,46.9,45.8,30.15,ESE,117,0.0,0.0,96,0.00,,,0.00,0,HR-IXPWINDi_r2_v1.2.,2013-10-10 06:40:00,
2013-10-10 02:46:00,46.7,45.6,30.14,ESE,117,0.0,0.0,96,0.00,,,0.00,0,HR-IXPWINDi_r2_v1.2.,2013-10-10 06:46:00,
2013-10-10 02:51:00,46.4,45.0,30.14,ESE,117,0.0,0.0,95,0.00,,,0.00,0,HR-IXPWINDi_r2_v1.2.,2013-10-10 06:51:00,
2013-10-10 02:56:00,46.2,45.1,30.14,ESE,117,0.0,0.0,96,0.00,,,0.00,0,HR-IXPWINDi_r2_v1.2.,2013-10-10 06:56:00,
2013-10-10 03:01:00,46.3,45.2,30.14,ESE,117,0.0,0.0,96,0.00,,,0.00,0,HR-IXPWINDi_r2_v1.2.,2013-10-10 07:01:00,
2013-10-10 03:06:00,46.7,45.6,30.14,ESE,117,0.0,0.0,96,0.00,,,0.00,0,HR-IXPWINDi_r2_v1.2.,2013-10-10 07:06:00,
2013-10-10 03:12:00,46.7,45.6,30.14,ESE,117,0.0,0.0,96,0.00,,,0.00,0,HR-IXPWINDi_r2_v1.2.,2013-10-10 07:12:00,
2013-10-10 03:17:00,46.7,45.6,30.14,ESE,117,0.0,0.0,96,0.00,,,0.00,0,HR-IXPWINDi_r2_v1.2.,2013-10-10 07:17:00,
2013-10-10 03:22:00,46.8,45.7,30.14,ESE,117,0.0,0.0,96,0.00,,,0.00,0,HR-IXPWINDi_r2_v1.2.,2013-10-10 07:22:00,
2013-10-10 03:27:00,47.0,45.9,30.14,ESE,117,0.0,0.0,96,0.00,,,0.00,0,HR-IXPWINDi_r2_v1.2.,2013-10-10 07:27:00,
2013-10-10 03:32:00,47.3,46.2,30.14,ESE,117,0.0,0.0,96,0.00,,,0.00,0,HR-IXPWINDi_r2_v1.2.,2013-10-10 07:32:00,
2013-10-10 03:37:00,47.4,46.3,30.14,ESE,117,0.0,0.0,96,0.00,,,0.00,0,HR-IXPWINDi_r2_v1.2.,2013-10-10 07:37:00,
2013-10-10 03:42:00,47.8,46.7,30.14,ESE,117,0.0,0.0,96,0.00,,,0.00,0,HR-IXPWINDi_r2_v1.2.,2013-10-10 07:42:00,
2013-10-10 03:47:00,47.8,46.7,30.14,ESE,117,0.0,0.0,96,0.00,,,0.00,0,HR-IXPWINDi_r2_v1.2.,2013-10-10 07:47:00,
2013-10-10 03:53:00,47.9,46.8,30.14,ESE,117,0.0,0.0,96,0.00,,,0.00,0,HR-IXPWINDi_r2_v1.2.,2013-10-10 07:53:00,
2013-10-10 03:58:00,47.9,46.8,30.13,ESE,117,0.0,0.0,96,0.00,,,0.00,0,HR-IXPWINDi_r2_v1.2.,2013-10-10 07:58:00,
2013-10-10 04:03:00,47.9,46.8,30.13,ESE,117,0.0,0.0,96,0.00,,,0.00,0,HR-IXPWINDi_r2_v1.2.,2013-10-10 08:03:00,
2013-10-10 04:08:00,47.8,46.7,30.13,ESE,117,0.0,0.0,96,0.00,,,0.00,0,HR-IXPWINDi_r2_v1.2.,2013-10-10 08:08:00,
2013-10-10 04:14:00,47.8,46.7,30.13,ESE,117,0.0,0.0,96,0.00,,,0.00,0,HR-IXPWINDi_r2_v1.2.,2013-10-10 08:14:00,
2013-10-10 04:19:00,47.9,47.0,30.14,ESE,117,0.0,0.0,97,0.00,,,0.00,0,HR-IXPWINDi_r2_v1.2.,2013-10-10 08:19:00,
2013-10-10 04:24:00,47.8,46.9,30.13,ESE,117,0.0,0.0,97,0.00,,,0.00,0,HR-IXPWINDi_r2_v1.2.,2013-10-10 08:24:00,
2013-10-10 04:29:00,47.9,47.0,30.13,ESE,117,0.0,0.0,97,0.00,,,0.00,0,HR-IXPWINDi_r2_v1.2.,2013-10-10 08:29:00,
2013-10-10 04:34:00,47.8,46.9,30.13,ESE,117,0.0,0.0,97,0.00,,,0.00,0,HR-IXPWINDi_r2_v1.2.,2013-10-10 08:34:00,
2013-10-10 04:39:00,48.0,47.1,30.13,ESE,117,0.0,0.0,97,0.00,,,0.00,0,HR-IXPWINDi_r2_v1.2.,2013-10-10 08:39:00,
2013-10-10 04:44:00,48.1,47.2,30.14,ESE,117,0.0,0.0,97,0.00,,,0.00,0,HR-IXPWINDi_r2_v1.2.,2013-10-10 08:44:00,
2013-10-10 04:49:00,48.1,47.2,30.14,ESE,117,0.0,0.0,97,0.00,,,0.00,0,HR-IXPWINDi_r2_v1.2.,2013-10-10 08:49:00,
2013-10-10 04:55:00,48.1,47.2,30.13,ESE,117,0.0,0.0,97,0.00,,,0.00,0,HR-IXPWINDi_r2_v1.2.,2013-10-10 08:55:00,
2013-10-10 05:00:00,48.1,47.2,30.14,ESE,117,0.0,0.0,97,0.00,,,0.00,0,HR-IXPWINDi_r2_v1.2.,2013-10-10 09:00:00,
2013-10-10 05:05:00,48.1,47.2,30.14,ESE,117,0.0,0.0,97,0.00,,,0.00,0,HR-IXPWINDi_r2_v1.2.,2013-10-10 09:05:00,
2013-10-10 05:10:00,47.8,46.9,30.14,ESE,117,0.0,0.0,97,0.00,,,0.00,0,HR-IXPWINDi_r2_v1.2.,2013-10-10 09:10:00,
2013-10-10 05:15:00,47.6,46.7,30.14,ESE,117,0.0,0.0,97,0.00,,,0.00,0,HR-IXPWINDi_r2_v1.2.,2013-10-10 09:15:00,
2013-10-10 05:21:00,47.6,46.7,30.14,ESE,117,0.0,0.0,97,0.00,,,0.00,0,HR-IXPWINDi_r2_v1.2.,2013-10-10 09:21:00,
2013-10-10 05:26:00,47.5,46.6,30.14,ESE,117,0.0,0.0,97,0.00,,,0.00,0,HR-IXPWINDi_r2_v1.2.,2013-10-10 09:26:00,
2013-10-10 05:31:00,47.4,46.5,30.14,ESE,117,0.0,0.0,97,0.00,,,0.00,0,HR-IXPWINDi_r2_v1.2.,2013-10-10 09:31:00,
2013-10-10 05:36:00,47.6,46.7,30.14,ESE,117,0.0,0.0,97,0.00,,,0.00,0,HR-IXPWINDi_r2_v1.2.,2013-10-10 09:36:00,
2013-10-10 05:41:00,47.6,46.7,30.14,ESE,117,0.0,0.0,97,0.00,,,0.00,0,HR-IXPWINDi_r2_v1.2.,2013-10-10 09:41:00,
2013-10-10 05:47:00,47.4,46.5,30.14,ESE,117,0.0,0.0,97,0.00,,,0.00,0,HR-IXPWINDi_r2_v1.2.,2013-10-10 09:47:00,
2013-10-10 05:52:00,47.2,46.3,30.14,ESE,117,0.0,0.0,97,0.00,,,0.00,0,HR-IXPWINDi_r2_v1.2.,2013-10-10 09:52:00,
2013-10-10 05:57:00,47.0,46.1,30.14,ESE,117,0.0,0.0,97,0.00,,,0.00,0,HR-IXPWINDi_r2_v1.2.,2013-10-10 09:57:00,
2013-10-10 06:02:00,47.2,46.3,30.14,ESE,117,0.0,0.0,97,0.00,,,0.00,0,HR-IXPWINDi_r2_v1.2.,2013-10-10 10:02:00,
2013-10-10 06:07:00,47.3,46.4,30.14,ESE,117,0.0,0.0,97,0.00,,,0.00,0,HR-IXPWINDi_r2_v1.2.,2013-10-10 10:07:00,
2013-10-10 06:12:00,47.1,46.2,30.14,ESE,117,0.0,0.0,97,0.00,,,0.00,0,HR-IXPWINDi_r2_v1.2.,2013-10-10 10:12:00,
2013-10-10 06:18:00,46.8,45.9,30.14,ESE,117,0.0,0.0,97,0.00,,,0.00,0,HR-IXPWINDi_r2_v1.2.,2013-10-10 10:18:00,
2013-10-10 06:23:00,46.7,45.8,30.15,ESE,117,0.0,0.0,97,0.00,,,0.00,0,HR-IXPWINDi_r2_v1.2.,2013-10-10 10:23:00,
2013-10-10 06:28:00,46.6,45.7,30.14,ESE,117,0.0,0.0,97,0.00,,,0.00,0,HR-IXPWINDi_r2_v1.2.,2013-10-10 10:28:00,
2013-10-10 06:33:00,46.5,45.6,30.15,ESE,117,0.0,0.0,97,0.00,,,0.00,0,HR-IXPWINDi_r2_v1.2.,2013-10-10 10:33:00,
2013-10-10 06:39:00,46.6,45.7,30.14,ESE,117,0.0,0.0,97,0.00,,,0.00,0,HR-IXPWINDi_r2_v1.2.,2013-10-10 10:39:00,
2013-10-10 06:44:00,46.4,45.5,30.15,ESE,117,0.0,0.0,97,0.00,,,0.00,0,HR-IXPWINDi_r2_v1.2.,2013-10-10 10:44:00,
2013-10-10 06:49:00,46.1,45.2,30.15,ESE,117,0.0,0.0,97,0.00,,,0.00,0,HR-IXPWINDi_r2_v1.2.,2013-10-10 10:49:00,
2013-10-10 06:54:00,46.1,45.2,30.15,ESE,117,0.0,0.0,97,0.00,,,0.00,0,HR-IXPWINDi_r2_v1.2.,2013-10-10 10:54:00,
2013-10-10 07:00:00,46.1,45.2,30.15,ESE,117,0.0,0.0,97,0.00,,,0.00,0,HR-IXPWINDi_r2_v1.2.,2013-10-10 11:00:00,
2013-10-10 07:05:00,46.2,45.3,30.15,ESE,117,0.0,0.0,97,0.00,,,0.00,0,HR-IXPWINDi_r2_v1.2.,2013-10-10 11:05:00,
2013-10-10 07:10:00,45.9,45.0,30.15,ESE,117,0.0,0.0,97,0.00,,,0.00,0,HR-IXPWINDi_r2_v1.2.,2013-10-10 11:10:00,
2013-10-10 07:16:00,45.7,44.8,30.15,ESE,117,0.0,4.0,97,0.00,,,0.00,0,HR-IXPWINDi_r2_v1.2.,2013-10-10 11:16:00,
2013-10-10 07:21:00,45.5,44.6,30.15,ESE,117,0.0,4.0,97,0.00,,,0.00,0,HR-IXPWINDi_r2_v1.2.,2013-10-10 11:21:00,
2013-10-10 07:26:00,45.5,44.6,30.15,ESE,117,0.0,4.0,97,0.00,,,0.00,0,HR-IXPWINDi_r2_v1.2.,2013-10-10 11:26:00,
2013-10-10 07:32:00,45.3,44.4,30.15,ESE,117,0.0,4.0,97,0.00,,,0.00,0,HR-IXPWINDi_r2_v1.2.,2013-10-10 11:32:00,
2013-10-10 07:37:00,45.3,44.4,30.15,ESE,117,0.0,4.0,97,0.00,,,0.00,0,HR-IXPWINDi_r2_v1.2.,2013-10-10 11:37:00,
2013-10-10 07:42:00,45.3,44.4,30.15,ESE,117,0.0,1.0,97,0.00,,,0.00,5,HR-IXPWINDi_r2_v1.2.,2013-10-10 11:42:00,
2013-10-10 07:47:00,45.3,44.4,30.15,ESE,117,0.0,1.0,97,0.00,,,0.00,5,HR-IXPWINDi_r2_v1.2.,2013-10-10 11:47:00,
2013-10-10 07:52:00,45.3,44.4,30.15,ESE,117,0.0,1.0,97,0.00,,,0.00,7,HR-IXPWINDi_r2_v1.2.,2013-10-10 11:52:00,
2013-10-10 07:57:00,45.3,44.4,30.15,ESE,117,0.0,4.0,97,0.00,,,0.00,7,HR-IXPWINDi_r2_v1.2.,2013-10-10 11:57:00,
2013-10-10 08:02:00,45.1,44.5,30.15,ESE,117,0.0,4.0,98,0.00,,,0.00,9,HR-IXPWINDi_r2_v1.2.,2013-10-10 12:02:00,
2013-10-10 08:07:00,45.1,44.5,30.15,ESE,117,0.0,4.0,98,0.00,,,0.00,9,HR-IXPWINDi_r2_v1.2.,2013-10-10 12:07:00,
2013-10-10 08:12:00,44.9,44.0,30.15,ESE,117,0.0,2.0,97,0.00,,,0.00,25,HR-IXPWINDi_r2_v1.2.,2013-10-10 12:12:00,
2013-10-10 08:17:00,45.0,44.1,30.15,ESE,117,0.0,4.0,97,0.00,,,0.00,46,HR-IXPWINDi_r2_v1.2.,2013-10-10 12:17:00,
2013-10-10 08:22:00,45.2,44.6,30.15,ESE,118,2.0,4.0,98,0.00,,,0.00,40,HR-IXPWINDi_r2_v1.2.,2013-10-10 12:22:00,
2013-10-10 08:27:00,45.2,44.6,30.15,ESE,119,0.0,4.0,98,0.00,,,0.00,63,HR-IXPWINDi_r2_v1.2.,2013-10-10 12:27:00,
2013-10-10 08:33:00,45.4,44.8,30.15,ESE,119,0.0,4.0,98,0.00,,,0.00,53,HR-IXPWINDi_r2_v1.2.,2013-10-10 12:33:00,
2013-10-10 08:38:00,45.4,44.8,30.15,ESE,120,1.0,4.0,98,0.00,,,0.00,56,HR-IXPWINDi_r2_v1.2.,2013-10-10 12:38:00,
2013-10-10 08:43:00,45.4,44.8,30.15,ESE,120,1.0,4.0,98,0.00,,,0.00,83,HR-IXPWINDi_r2_v1.2.,2013-10-10 12:43:00,
2013-10-10 08:48:00,45.4,44.8,30.15,ESE,121,0.0,5.0,98,0.00,,,0.00,65,HR-IXPWINDi_r2_v1.2.,2013-10-10 12:48:00,
2013-10-10 08:54:00,45.7,45.1,30.15,SE,146,4.0,5.0,98,0.00,,,0.00,70,HR-IXPWINDi_r2_v1.2.,2013-10-10 12:54:00,
2013-10-10 08:59:00,46.0,45.4,30.16,SSE,160,0.0,5.0,98,0.00,,,0.00,88,HR-IXPWINDi_r2_v1.2.,2013-10-10 12:59:00,
2013-10-10 09:04:00,46.3,45.7,30.16,SSE,168,2.0,5.0,98,0.00,,,0.00,104,HR-IXPWINDi_r2_v1.2.,2013-10-10 13:04:00,
2013-10-10 09:09:00,46.5,45.9,30.16,South,170,4.0,5.0,98,0.00,,,0.00,128,HR-IXPWINDi_r2_v1.2.,2013-10-10 13:09:00,
2013-10-10 09:14:00,46.4,45.8,30.16,SSE,163,1.0,5.0,98,0.00,,,0.00,165,HR-IXPWINDi_r2_v1.2.,2013-10-10 13:14:00,
2013-10-10 09:19:00,46.5,45.9,30.16,SSE,163,1.0,5.0,98,0.00,,,0.00,181,HR-IXPWINDi_r2_v1.2.,2013-10-10 13:19:00,
2013-10-10 09:25:00,46.6,46.0,30.16,SSE,160,2.0,5.0,98,0.00,,,0.00,158,HR-IXPWINDi_r2_v1.2.,2013-10-10 13:25:00,
2013-10-10 09:30:00,47.1,46.5,30.16,SSE,160,2.0,4.0,98,0.00,,,0.00,207,HR-IXPWINDi_r2_v1.2.,2013-10-10 13:30:00,
2013-10-10 09:35:00,47.4,46.8,30.16,SSE,167,5.0,6.0,98,0.00,,,0.00,309,HR-IXPWINDi_r2_v1.2.,2013-10-10 13:35:00,
2013-10-10 09:40:00,47.5,46.9,30.16,South,177,2.0,6.0,98,0.00,,,0.00,202,HR-IXPWINDi_r2_v1.2.,2013-10-10 13:40:00,
2013-10-10 09:45:00,48.1,47.5,30.16,South,177,1.0,5.0,98,0.00,,,0.00,279,HR-IXPWINDi_r2_v1.2.,2013-10-10 13:45:00,
2013-10-10 09:50:00,48.6,48.0,30.16,South,178,4.0,5.0,98,0.00,,,0.01,404,HR-IXPWINDi_r2_v1.2.,2013-10-10 13:50:00,
2013-10-10 09:55:00,48.6,48.0,30.16,South,183,2.0,5.0,98,0.00,,,0.01,374,HR-IXPWINDi_r2_v1.2.,2013-10-10 13:55:00,
2013-10-10 10:00:00,49.9,49.3,30.16,SSE,157,0.0,6.0,98,0.00,,,0.01,390,HR-IXPWINDi_r2_v1.2.,2013-10-10 14:00:00,
2013-10-10 10:06:00,50.8,50.2,30.16,SSE,159,0.0,6.0,98,0.00,,,0.01,320,HR-IXPWINDi_r2_v1.2.,2013-10-10 14:06:00,
2013-10-10 10:11:00,51.4,50.8,30.15,North,5,0.0,5.0,98,0.00,,,0.01,457,HR-IXPWINDi_r2_v1.2.,2013-10-10 14:11:00,
2013-10-10 10:16:00,52.2,51.6,30.15,SSW,210,2.0,5.0,98,0.00,,,0.01,459,HR-IXPWINDi_r2_v1.2.,2013-10-10 14:16:00,
2013-10-10 10:21:00,53.1,52.2,30.15,SW,217,1.0,3.0,97,0.00,,,0.01,473,HR-IXPWINDi_r2_v1.2.,2013-10-10 14:21:00,
2013-10-10 10:26:00,54.0,52.8,30.15,NW,320,2.0,3.0,96,0.00,,,0.01,485,HR-IXPWINDi_r2_v1.2.,2013-10-10 14:26:00,
2013-10-10 10:32:00,54.8,53.0,30.15,SSW,194,0.0,4.0,94,0.00,,,0.01,497,HR-IXPWINDi_r2_v1.2.,2013-10-10 14:32:00,
2013-10-10 10:37:00,56.1,53.7,30.15,South,190,0.0,4.0,92,0.00,,,0.01,512,HR-IXPWINDi_r2_v1.2.,2013-10-10 14:37:00,
2013-10-10 10:42:00,57.6,54.3,30.14,SSW,201,0.0,6.0,89,0.00,,,0.01,527,HR-IXPWINDi_r2_v1.2.,2013-10-10 14:42:00,
2013-10-10 10:47:00,58.2,54.9,30.14,South,190,0.0,6.0,89,0.00,,,0.01,536,HR-IXPWINDi_r2_v1.2.,2013-10-10 14:47:00,
2013-10-10 10:53:00,60.2,55.9,30.14,SSW,211,3.0,5.0,86,0.00,,,0.01,550,HR-IXPWINDi_r2_v1.2.,2013-10-10 14:53:00,
2013-10-10 10:58:00,61.1,56.5,30.14,South,188,0.0,5.0,85,0.00,,,0.01,563,HR-IXPWINDi_r2_v1.2.,2013-10-10 14:58:00,
2013-10-10 11:03:00,61.9,56.6,30.14,SSW,192,6.0,7.0,83,0.00,,,0.01,571,HR-IXPWINDi_r2_v1.2.,2013-10-10 15:03:00,
2013-10-10 11:08:00,63.2,56.5,30.14,SSW,207,4.0,7.0,79,0.00,,,0.01,582,HR-IXPWINDi_r2_v1.2.,2013-10-10 15:08:00,
2013-10-10 11:13:00,64.4,55.9,30.13,West,268,1.0,7.0,74,0.00,,,0.01,592,HR-IXPWINDi_r2_v1.2.,2013-10-10 15:13:00,
2013-10-10 11:18:00,65.1,55.8,30.14,SSW,198,1.0,6.0,72,0.00,,,0.01,601,HR-IXPWINDi_r2_v1.2.,2013-10-10 15:18:00,
2013-10-10 11:23:00,65.3,55.6,30.14,North,355,0.0,6.0,71,0.00,,,0.01,606,HR-IXPWINDi_r2_v1.2.,2013-10-10 15:23:00,
2013-10-10 11:28:00,65.3,55.6,30.14,NNE,23,0.0,8.0,71,0.00,,,0.01,617,HR-IXPWINDi_r2_v1.2.,2013-10-10 15:28:00,
2013-10-10 11:34:00,65.9,55.0,30.14,North,5,0.0,8.0,68,0.00,,,0.01,624,HR-IXPWINDi_r2_v1.2.,2013-10-10 15:34:00,
2013-10-10 11:39:00,66.3,55.4,30.13,South,184,4.0,8.0,68,0.00,,,0.01,635,HR-IXPWINDi_r2_v1.2.,2013-10-10 15:39:00,
2013-10-10 11:44:00,65.7,55.2,30.13,SSW,198,8.0,9.0,69,0.00,,,0.01,647,HR-IXPWINDi_r2_v1.2.,2013-10-10 15:44:00,
2013-10-10 11:49:00,65.8,54.9,30.13,SSW,213,3.0,10.0,68,0.00,,,0.01,650,HR-IXPWINDi_r2_v1.2.,2013-10-10 15:49:00,
2013-10-10 11:54:00,66.0,55.1,30.13,SSE,148,1.0,10.0,68,0.00,,,0.01,654,HR-IXPWINDi_r2_v1.2.,2013-10-10 15:54:00,
2013-10-10 11:59:00,66.7,54.9,30.13,North,5,2.0,9.0,66,0.00,,,0.01,661,HR-IXPWINDi_r2_v1.2.,2013-10-10 15:59:00,
2013-10-10 12:05:00,66.5,54.3,30.13,North,355,5.0,9.0,65,0.00,,,0.01,694,HR-IXPWINDi_r2_v1.2.,2013-10-10 16:05:00,
2013-10-10 12:10:00,66.4,54.2,30.13,North,349,7.0,13.0,65,0.00,,,0.01,689,HR-IXPWINDi_r2_v1.2.,2013-10-10 16:10:00,
2013-10-10 12:15:00,66.2,53.6,30.12,North,355,2.0,13.0,64,0.00,,,0.01,719,HR-IXPWINDi_r2_v1.2.,2013-10-10 16:15:00,
2013-10-10 12:20:00,66.8,54.2,30.12,West,271,1.0,11.0,64,0.00,,,0.01,703,HR-IXPWINDi_r2_v1.2.,2013-10-10 16:20:00,
2013-10-10 12:25:00,67.3,53.3,30.12,North,355,9.0,13.0,61,0.00,,,0.01,714,HR-IXPWINDi_r2_v1.2.,2013-10-10 16:25:00,
2013-10-10 12:30:00,67.8,53.8,30.11,NNW,348,3.0,13.0,61,0.00,,,0.01,719,HR-IXPWINDi_r2_v1.2.,2013-10-10 16:30:00,
2013-10-10 12:35:00,68.1,54.1,30.11,NNW,341,7.0,11.0,61,0.00,,,0.01,722,HR-IXPWINDi_r2_v1.2.,2013-10-10 16:35:00,
2013-10-10 12:41:00,68.5,54.9,30.11,SSW,198,7.0,9.0,62,0.00,,,0.01,731,HR-IXPWINDi_r2_v1.2.,2013-10-10 16:41:00,
2013-10-10 12:46:00,68.4,53.9,30.11,South,180,4.0,10.0,60,0.00,,,0.01,722,HR-IXPWINDi_r2_v1.2.,2013-10-10 16:46:00,
2013-10-10 12:51:00,68.5,53.1,30.11,North,11,4.0,11.0,58,0.00,,,0.01,731,HR-IXPWINDi_r2_v1.2.,2013-10-10 16:51:00,
2013-10-10 12:56:00,68.9,53.9,30.11,North,360,2.0,17.0,59,0.00,,,0.01,733,HR-IXPWINDi_r2_v1.2.,2013-10-10 16:56:00,
2013-10-10 13:01:00,69.7,53.3,30.10,SW,229,0.0,17.0,56,0.00,,,0.01,759,HR-IXPWINDi_r2_v1.2.,2013-10-10 17:01:00,
2013-10-10 13:06:00,70.2,55.1,30.10,SE,140,0.0,5.0,59,0.00,,,0.01,724,HR-IXPWINDi_r2_v1.2.,2013-10-10 17:06:00,
2013-10-10 13:12:00,69.8,54.8,30.10,South,174,8.0,10.0,59,0.00,,,0.01,659,HR-IXPWINDi_r2_v1.2.,2013-10-10 17:12:00,
2013-10-10 13:17:00,70.2,54.7,30.10,North,355,5.0,10.0,58,0.00,,,0.01,780,HR-IXPWINDi_r2_v1.2.,2013-10-10 17:17:00,
2013-10-10 13:22:00,70.4,54.9,30.09,South,182,2.0,6.0,58,0.00,,,0.01,777,HR-IXPWINDi_r2_v1.2.,2013-10-10 17:22:00,
2013-10-10 13:28:00,70.3,54.8,30.09,East,89,2.0,10.0,58,0.00,,,0.01,322,HR-IXPWINDi_r2_v1.2.,2013-10-10 17:28:00,
2013-10-10 13:33:00,70.8,54.8,30.09,South,181,3.0,10.0,57,0.00,,,0.01,701,HR-IXPWINDi_r2_v1.2.,2013-10-10 17:33:00,
2013-10-10 13:38:00,70.1,54.1,30.09,SSW,193,5.0,9.0,57,0.00,,,0.01,698,HR-IXPWINDi_r2_v1.2.,2013-10-10 17:38:00,
2013-10-10 13:43:00,70.3,54.8,30.09,NNW,347,7.0,9.0,58,0.00,,,0.01,714,HR-IXPWINDi_r2_v1.2.,2013-10-10 17:43:00,
2013-10-10 13:48:00,70.1,54.1,30.09,NE,55,1.0,9.0,57,0.00,,,0.01,714,HR-IXPWINDi_r2_v1.2.,2013-10-10 17:48:00,
2013-10-10 13:53:00,70.6,54.1,30.09,SSW,200,0.0,8.0,56,0.00,,,0.01,684,HR-IXPWINDi_r2_v1.2.,2013-10-10 17:53:00,
2013-10-10 13:58:00,70.3,53.8,30.08,NNW,340,3.0,8.0,56,0.00,,,0.01,700,HR-IXPWINDi_r2_v1.2.,2013-10-10 17:58:00,
2013-10-10 14:03:00,70.5,54.5,30.09,NNW,348,0.0,9.0,57,0.00,,,0.01,684,HR-IXPWINDi_r2_v1.2.,2013-10-10 18:03:00,
2013-10-10 14:09:00,70.2,53.2,30.08,WSW,258,4.0,11.0,55,0.00,,,0.01,673,HR-IXPWINDi_r2_v1.2.,2013-10-10 18:09:00,
2013-10-10 14:14:00,70.0,53.0,30.08,South,185,3.0,11.0,55,0.00,,,0.01,666,HR-IXPWINDi_r2_v1.2.,2013-10-10 18:14:00,
2013-10-10 14:19:00,70.1,53.6,30.08,SSW,208,3.0,11.0,56,0.00,,,0.01,666,HR-IXPWINDi_r2_v1.2.,2013-10-10 18:19:00,
2013-10-10 14:24:00,70.6,54.1,30.08,NW,308,0.0,9.0,56,0.00,,,0.01,654,HR-IXPWINDi_r2_v1.2.,2013-10-10 18:24:00,
2013-10-10 14:30:00,71.2,55.1,30.08,WNW,286,0.0,9.0,57,0.00,,,0.01,650,HR-IXPWINDi_r2_v1.2.,2013-10-10 18:30:00,
2013-10-10 14:35:00,71.2,54.6,30.07,SSW,197,4.0,9.0,56,0.00,,,0.01,643,HR-IXPWINDi_r2_v1.2.,2013-10-10 18:35:00,
2013-10-10 14:40:00,70.8,54.3,30.08,SSW,194,8.0,9.0,56,0.00,,,0.01,633,HR-IXPWINDi_r2_v1.2.,2013-10-10 18:40:00,
2013-10-10 14:45:00,69.9,53.4,30.07,SSW,192,10.0,12.0,56,0.00,,,0.01,635,HR-IXPWINDi_r2_v1.2.,2013-10-10 18:45:00,
2013-10-10 14:50:00,70.3,54.3,30.07,NE,52,2.0,12.0,57,0.00,,,0.01,619,HR-IXPWINDi_r2_v1.2.,2013-10-10 18:50:00,
2013-10-10 14:55:00,70.4,53.9,30.07,North,5,0.0,14.0,56,0.00,,,0.01,605,HR-IXPWINDi_r2_v1.2.,2013-10-10 18:55:00,
2013-10-10 15:01:00,70.5,53.5,30.08,SE,146,0.0,14.0,55,0.00,,,0.01,605,HR-IXPWINDi_r2_v1.2.,2013-10-10 19:01:00,
2013-10-10 15:06:00,70.3,54.8,30.07,North,355,9.0,9.0,58,0.00,,,0.01,598,HR-IXPWINDi_r2_v1.2.,2013-10-10 19:06:00,
2013-10-10 15:11:00,70.5,53.5,30.07,North,5,6.0,10.0,55,0.00,,,0.01,592,HR-IXPWINDi_r2_v1.2.,2013-10-10 19:11:00,
2013-10-10 15:16:00,71.0,54.5,30.07,NNW,338,4.0,10.0,56,0.00,,,0.01,608,HR-IXPWINDi_r2_v1.2.,2013-10-10 19:16:00,
2013-10-10 15:21:00,70.7,54.7,30.07,WNW,292,0.0,8.0,57,0.00,,,0.01,612,HR-IXPWINDi_r2_v1.2.,2013-10-10 19:21:00,
2013-10-10 15:26:00,70.4,54.9,30.07,NW,319,0.0,12.0,58,0.00,,,0.01,621,HR-IXPWINDi_r2_v1.2.,2013-10-10 19:26:00,
2013-10-10 15:31:00,70.3,54.3,30.07,North,5,0.0,12.0,57,0.00,,,0.01,374,HR-IXPWINDi_r2_v1.2.,2013-10-10 19:31:00,
2013-10-10 15:37:00,70.9,54.4,30.07,North,355,4.0,5.0,56,0.00,,,0.01,427,HR-IXPWINDi_r2_v1.2.,2013-10-10 19:37:00,
2013-10-10 15:42:00,71.2,55.1,30.07,North,355,4.0,7.0,57,0.00,,,0.01,555,HR-IXPWINDi_r2_v1.2.,2013-10-10 19:42:00,
2013-10-10 15:47:00,72.0,54.9,30.07,WSW,248,2.0,7.0,55,0.00,,,0.01,603,HR-IXPWINDi_r2_v1.2.,2013-10-10 19:47:00,
2013-10-10 15:52:00,71.1,54.6,30.07,NNW,348,2.0,6.0,56,0.00,,,0.01,531,HR-IXPWINDi_r2_v1.2.,2013-10-10 19:52:00,
2013-10-10 15:57:00,71.7,55.1,30.07,SSW,196,1.0,6.0,56,0.00,,,0.01,603,HR-IXPWINDi_r2_v1.2.,2013-10-10 19:57:00,
2013-10-10 16:03:00,70.5,55.0,30.07,NNW,347,0.0,11.0,58,0.00,,,0.01,443,HR-IXPWINDi_r2_v1.2.,2013-10-10 20:03:00,
2013-10-10 16:08:00,70.5,54.5,30.07,North,360,5.0,11.0,57,0.00,,,0.01,501,HR-IXPWINDi_r2_v1.2.,2013-10-10 20:08:00,
2013-10-10 16:13:00,70.5,55.0,30.07,SW,214,0.0,8.0,58,0.00,,,0.01,482,HR-IXPWINDi_r2_v1.2.,2013-10-10 20:13:00,
2013-10-10 16:18:00,71.0,54.5,30.07,North,5,1.0,8.0,56,0.00,,,0.01,318,HR-IXPWINDi_r2_v1.2.,2013-10-10 20:18:00,
2013-10-10 16:23:00,71.5,54.9,30.07,NW,317,4.0,6.0,56,0.00,,,0.01,445,HR-IXPWINDi_r2_v1.2.,2013-10-10 20:23:00,
2013-10-10 16:28:00,71.7,55.1,30.06,NNE,19,0.0,5.0,56,0.00,,,0.01,482,HR-IXPWINDi_r2_v1.2.,2013-10-10 20:28:00,
2013-10-10 16:33:00,71.1,54.6,30.06,SW,232,0.0,7.0,56,0.00,,,0.01,464,HR-IXPWINDi_r2_v1.2.,2013-10-10 20:33:00,
2013-10-10 16:38:00,70.4,54.4,30.06,NNE,13,4.0,10.0,57,0.00,,,0.01,202,HR-IXPWINDi_r2_v1.2.,2013-10-10 20:38:00,
2013-10-10 16:43:00,70.2,55.1,30.06,North,350,1.0,10.0,59,0.00,,,0.01,225,HR-IXPWINDi_r2_v1.2.,2013-10-10 20:43:00,
2013-10-10 16:49:00,69.7,54.2,30.06,NW,321,3.0,8.0,58,0.00,,,0.01,371,HR-IXPWINDi_r2_v1.2.,2013-10-10 20:49:00,
2013-10-10 16:54:00,70.1,54.6,30.06,WNW,298,0.0,8.0,58,0.00,,,0.01,374,HR-IXPWINDi_r2_v1.2.,2013-10-10 20:54:00,
2013-10-10 16:59:00,71.0,55.9,30.06,North,360,2.0,6.0,59,0.00,,,0.01,392,HR-IXPWINDi_r2_v1.2.,2013-10-10 20:59:00,
2013-10-10 17:04:00,70.5,54.5,30.06,NNW,333,7.0,7.0,57,0.00,,,0.01,255,HR-IXPWINDi_r2_v1.2.,2013-10-10 21:04:00,
2013-10-10 17:10:00,70.2,55.1,30.06,NNW,342,4.0,9.0,59,0.00,,,0.01,148,HR-IXPWINDi_r2_v1.2.,2013-10-10 21:10:00,
2013-10-10 17:15:00,69.6,55.0,30.05,NNW,345,2.0,9.0,60,0.00,,,0.01,123,HR-IXPWINDi_r2_v1.2.,2013-10-10 21:15:00,
2013-10-10 17:20:00,69.4,54.4,30.05,NNW,346,3.0,10.0,59,0.00,,,0.01,116,HR-IXPWINDi_r2_v1.2.,2013-10-10 21:20:00,
2013-10-10 17:25:00,68.8,54.7,30.05,NE,39,2.0,10.0,61,0.00,,,0.01,114,HR-IXPWINDi_r2_v1.2.,2013-10-10 21:25:00,
2013-10-10 17:31:00,69.0,54.9,30.06,NNW,336,2.0,10.0,61,0.00,,,0.01,111,HR-IXPWINDi_r2_v1.2.,2013-10-10 21:31:00,
2013-10-10 17:36:00,68.6,54.6,30.05,NNW,345,0.0,5.0,61,0.00,,,0.01,91,HR-IXPWINDi_r2_v1.2.,2013-10-10 21:36:00,
2013-10-10 17:41:00,68.7,55.5,30.06,North,350,0.0,4.0,63,0.00,,,0.01,67,HR-IXPWINDi_r2_v1.2.,2013-10-10 21:41:00,
2013-10-10 17:46:00,68.2,55.5,30.06,North,350,3.0,3.0,64,0.00,,,0.01,37,HR-IXPWINDi_r2_v1.2.,2013-10-10 21:46:00,
2013-10-10 17:51:00,67.8,55.1,30.05,NW,305,0.0,4.0,64,0.00,,,0.01,39,HR-IXPWINDi_r2_v1.2.,2013-10-10 21:51:00,
2013-10-10 17:56:00,67.4,55.2,30.06,NW,313,0.0,5.0,65,0.00,,,0.01,53,HR-IXPWINDi_r2_v1.2.,2013-10-10 21:56:00,
2013-10-10 18:02:00,67.6,55.4,30.06,NW,315,0.0,5.0,65,0.00,,,0.01,39,HR-IXPWINDi_r2_v1.2.,2013-10-10 22:02:00,
2013-10-10 18:07:00,67.5,55.3,30.06,NW,315,0.0,2.0,65,0.00,,,0.01,32,HR-IXPWINDi_r2_v1.2.,2013-10-10 22:07:00,
2013-10-10 18:12:00,67.3,55.5,30.06,NW,315,0.0,1.0,66,0.00,,,0.01,28,HR-IXPWINDi_r2_v1.2.,2013-10-10 22:12:00,
2013-10-10 18:17:00,66.7,55.7,30.06,NW,315,0.0,1.0,68,0.00,,,0.01,32,HR-IXPWINDi_r2_v1.2.,2013-10-10 22:17:00,
2013-10-10 18:22:00,67.6,56.2,30.05,NW,315,0.0,1.0,67,0.00,,,0.01,19,HR-IXPWINDi_r2_v1.2.,2013-10-10 22:22:00,
2013-10-10 18:27:00,66.1,55.6,30.06,NW,315,0.0,1.0,69,0.00,,,0.01,14,HR-IXPWINDi_r2_v1.2.,2013-10-10 22:27:00,
2013-10-10 18:33:00,65.2,55.5,30.05,NW,315,0.0,1.0,71,0.00,,,0.01,12,HR-IXPWINDi_r2_v1.2.,2013-10-10 22:33:00,
2013-10-10 18:38:00,64.9,56.0,30.05,NW,315,1.0,2.0,73,0.00,,,0.01,11,HR-IXPWINDi_r2_v1.2.,2013-10-10 22:38:00,
2013-10-10 18:43:00,64.2,55.7,30.06,NW,315,1.0,3.0,74,0.00,,,0.01,11,HR-IXPWINDi_r2_v1.2.,2013-10-10 22:43:00,
2013-10-10 18:48:00,64.0,56.2,30.05,NW,315,0.0,3.0,76,0.00,,,0.01,7,HR-IXPWINDi_r2_v1.2.,2013-10-10 22:48:00,
2013-10-10 18:53:00,63.0,56.0,30.06,NW,315,0.0,2.0,78,0.00,,,0.01,7,HR-IXPWINDi_r2_v1.2.,2013-10-10 22:53:00,
2013-10-10 18:58:00,62.6,56.3,30.06,NW,315,0.0,0.0,80,0.00,,,0.01,5,HR-IXPWINDi_r2_v1.2.,2013-10-10 22:58:00,
2013-10-10 19:03:00,62.5,55.8,30.06,NW,315,0.0,0.0,79,0.00,,,0.01,0,HR-IXPWINDi_r2_v1.2.,2013-10-10 23:03:00,
2013-10-10 19:08:00,62.2,55.9,30.06,NW,315,0.0,0.0,80,0.00,,,0.01,0,HR-IXPWINDi_r2_v1.2.,2013-10-10 23:08:00,
2013-10-10 19:13:00,61.3,55.7,30.06,NW,315,0.0,2.0,82,0.00,,,0.01,0,HR-IXPWINDi_r2_v1.2.,2013-10-10 23:13:00,
2013-10-10 19:18:00,60.8,55.5,30.06,NW,315,0.0,2.0,83,0.00,,,0.01,0,HR-IXPWINDi_r2_v1.2.,2013-10-10 23:18:00,
2013-10-10 19:23:00,60.2,55.6,30.06,NW,315,0.0,0.0,85,0.00,,,0.01,0,HR-IXPWINDi_r2_v1.2.,2013-10-10 23:23:00,
2013-10-10 19:28:00,60.4,55.5,30.06,NW,315,0.0,0.0,84,0.00,,,0.01,0,HR-IXPWINDi_r2_v1.2.,2013-10-10 23:28:00,
2013-10-10 19:33:00,59.8,55.2,30.07,NW,315,0.0,0.0,85,0.00,,,0.01,0,HR-IXPWINDi_r2_v1.2.,2013-10-10 23:33:00,
2013-10-10 19:38:00,59.4,55.1,30.07,NW,315,0.0,1.0,86,0.00,,,0.01,0,HR-IXPWINDi_r2_v1.2.,2013-10-10 23:38:00,
2013-10-10 19:44:00,59.0,54.8,30.07,NW,315,0.0,1.0,86,0.00,,,0.01,0,HR-IXPWINDi_r2_v1.2.,2013-10-10 23:44:00,
2013-10-10 19:49:00,59.1,55.2,30.07,NW,315,0.0,1.0,87,0.00,,,0.01,0,HR-IXPWINDi_r2_v1.2.,2013-10-10 23:49:00,
2013-10-10 19:54:00,58.7,54.8,30.07,NW,315,0.0,1.0,87,0.00,,,0.01,0,HR-IXPWINDi_r2_v1.2.,2013-10-10 23:54:00,
2013-10-10 19:59:00,58.8,54.6,30.07,NW,315,0.0,1.0,86,0.00,,,0.01,0,HR-IXPWINDi_r2_v1.2.,2013-10-10 23:59:00,
2013-10-10 20:05:00,59.0,55.1,30.07,NW,315,0.0,1.0,87,0.00,,,0.01,0,HR-IXPWINDi_r2_v1.2.,2013-10-11 00:05:00,
2013-10-10 20:10:00,59.0,54.8,30.08,NW,315,0.0,1.0,86,0.00,,,0.01,0,HR-IXPWINDi_r2_v1.2.,2013-10-11 00:10:00,
2013-10-10 20:15:00,58.2,54.3,30.08,NW,315,0.0,0.0,87,0.00,,,0.01,0,HR-IXPWINDi_r2_v1.2.,2013-10-11 00:15:00,
2013-10-10 20:20:00,58.2,54.6,30.08,NW,315,0.0,0.0,88,0.00,,,0.01,0,HR-IXPWINDi_r2_v1.2.,2013-10-11 00:20:00,
2013-10-10 20:25:00,57.8,54.2,30.08,NW,315,0.0,0.0,88,0.00,,,0.01,0,HR-IXPWINDi_r2_v1.2.,2013-10-11 00:25:00,
2013-10-10 20:30:00,57.8,54.5,30.08,NW,315,0.0,0.0,89,0.00,,,0.01,0,HR-IXPWINDi_r2_v1.2.,2013-10-11 00:30:00,
2013-10-10 20:35:00,57.8,54.5,30.08,NW,316,0.0,1.0,89,0.00,,,0.01,0,HR-IXPWINDi_r2_v1.2.,2013-10-11 00:35:00,
2013-10-10 20:40:00,57.9,54.6,30.08,NW,316,0.0,1.0,89,0.00,,,0.01,0,HR-IXPWINDi_r2_v1.2.,2013-10-11 00:40:00,
2013-10-10 20:46:00,57.4,54.1,30.08,NW,316,0.0,1.0,89,0.00,,,0.01,0,HR-IXPWINDi_r2_v1.2.,2013-10-11 00:46:00,
2013-10-10 20:51:00,57.1,54.1,30.08,NW,317,0.0,1.0,90,0.00,,,0.01,0,HR-IXPWINDi_r2_v1.2.,2013-10-11 00:51:00,
2013-10-10 20:56:00,56.8,53.8,30.08,NW,317,0.0,1.0,90,0.00,,,0.01,0,HR-IXPWINDi_r2_v1.2.,2013-10-11 00:56:00,
2013-10-10 21:02:00,57.1,54.4,30.08,NW,317,0.0,1.0,91,0.00,,,0.01,0,HR-IXPWINDi_r2_v1.2.,2013-10-11 01:02:00,
2013-10-10 21:07:00,57.1,54.4,30.08,NW,317,0.0,1.0,91,0.00,,,0.01,0,HR-IXPWINDi_r2_v1.2.,2013-10-11 01:07:00,
2013-10-10 21:12:00,56.9,54.2,30.07,NW,317,0.0,1.0,91,0.00,,,0.01,0,HR-IXPWINDi_r2_v1.2.,2013-10-11 01:12:00,
2013-10-10 21:18:00,56.3,53.9,30.07,East,99,1.0,4.0,92,0.00,,,0.01,0,HR-IXPWINDi_r2_v1.2.,2013-10-11 01:18:00,
2013-10-10 21:23:00,56.3,53.9,30.08,East,99,0.0,4.0,92,0.00,,,0.01,0,HR-IXPWINDi_r2_v1.2.,2013-10-11 01:23:00,
2013-10-10 21:28:00,56.2,53.8,30.08,East,99,0.0,2.0,92,0.00,,,0.01,0,HR-IXPWINDi_r2_v1.2.,2013-10-11 01:28:00,
2013-10-10 21:33:00,56.0,53.6,30.08,East,99,0.0,1.0,92,0.00,,,0.01,0,HR-IXPWINDi_r2_v1.2.,2013-10-11 01:33:00,
2013-10-10 21:39:00,55.7,53.3,30.08,East,99,0.0,1.0,92,0.00,,,0.01,0,HR-IXPWINDi_r2_v1.2.,2013-10-11 01:39:00,
2013-10-10 21:44:00,55.5,53.1,30.08,East,99,0.0,1.0,92,0.00,,,0.01,0,HR-IXPWINDi_r2_v1.2.,2013-10-11 01:44:00,
2013-10-10 21:49:00,55.2,52.8,30.08,East,99,0.0,1.0,92,0.00,,,0.01,0,HR-IXPWINDi_r2_v1.2.,2013-10-11 01:49:00,
2013-10-10 21:54:00,54.9,52.8,30.07,East,99,0.0,2.0,93,0.00,,,0.01,0,HR-IXPWINDi_r2_v1.2.,2013-10-11 01:54:00,
2013-10-10 21:59:00,54.4,52.4,30.07,East,99,0.0,4.0,93,0.00,,,0.01,0,HR-IXPWINDi_r2_v1.2.,2013-10-11 01:59:00,
2013-10-10 22:05:00,54.3,52.3,30.07,East,99,1.0,4.0,93,0.00,,,0.01,0,HR-IXPWINDi_r2_v1.2.,2013-10-11 02:05:00,
2013-10-10 22:10:00,54.0,52.2,30.07,East,99,1.0,4.0,94,0.00,,,0.01,0,HR-IXPWINDi_r2_v1.2.,2013-10-11 02:10:00,
2013-10-10 22:15:00,53.9,52.1,30.07,East,99,4.0,4.0,94,0.00,,,0.01,0,HR-IXPWINDi_r2_v1.2.,2013-10-11 02:15:00,
2013-10-10 22:20:00,53.6,51.8,30.07,East,99,0.0,4.0,94,0.00,,,0.01,0,HR-IXPWINDi_r2_v1.2.,2013-10-11 02:20:00,
2013-10-10 22:25:00,53.6,51.8,30.07,ESE,121,0.0,4.0,94,0.00,,,0.01,0,HR-IXPWINDi_r2_v1.2.,2013-10-11 02:25:00,
2013-10-10 22:31:00,53.6,51.8,30.07,ESE,121,0.0,4.0,94,0.00,,,0.01,0,HR-IXPWINDi_r2_v1.2.,2013-10-11 02:31:00,
2013-10-10 22:36:00,53.5,51.7,30.07,ESE,121,0.0,1.0,94,0.00,,,0.01,0,HR-IXPWINDi_r2_v1.2.,2013-10-11 02:36:00,
2013-10-10 22:41:00,53.7,51.9,30.07,ESE,121,0.0,0.0,94,0.00,,,0.01,0,HR-IXPWINDi_r2_v1.2.,2013-10-11 02:41:00,
2013-10-10 22:46:00,53.7,51.9,30.07,ESE,121,0.0,0.0,94,0.00,,,0.01,0,HR-IXPWINDi_r2_v1.2.,2013-10-11 02:46:00,
2013-10-10 22:52:00,53.5,51.7,30.07,ESE,121,0.0,0.0,94,0.00,,,0.01,0,HR-IXPWINDi_r2_v1.2.,2013-10-11 02:52:00,
2013-10-10 22:57:00,53.4,51.6,30.07,ESE,121,0.0,0.0,94,0.00,,,0.01,0,HR-IXPWINDi_r2_v1.2.,2013-10-11 02:57:00,
2013-10-10 23:02:00,53.0,51.0,30.07,ESE,121,0.0,0.0,93,0.00,,,0.01,0,HR-IXPWINDi_r2_v1.2.,2013-10-11 03:02:00,
2013-10-10 23:08:00,52.7,51.0,30.07,ESE,121,0.0,0.0,94,0.00,,,0.01,0,HR-IXPWINDi_r2_v1.2.,2013-10-11 03:08:00,
2013-10-10 23:13:00,52.8,51.1,30.07,ESE,121,0.0,0.0,94,0.00,,,0.01,0,HR-IXPWINDi_r2_v1.2.,2013-10-11 03:13:00,
2013-10-10 23:18:00,52.6,50.9,30.07,ESE,121,0.0,0.0,94,0.00,,,0.01,0,HR-IXPWINDi_r2_v1.2.,2013-10-11 03:18:00,
2013-10-10 23:23:00,52.2,50.5,30.07,ESE,121,0.0,0.0,94,0.00,,,0.01,0,HR-IXPWINDi_r2_v1.2.,2013-10-11 03:23:00,
2013-10-10 23:28:00,52.0,50.3,30.07,ESE,121,0.0,0.0,94,0.00,,,0.01,0,HR-IXPWINDi_r2_v1.2.,2013-10-11 03:28:00,
2013-10-10 23:34:00,52.1,50.6,30.07,ESE,121,0.0,0.0,95,0.00,,,0.01,0,HR-IXPWINDi_r2_v1.2.,2013-10-11 03:34:00,
2013-10-10 23:39:00,51.7,50.0,30.07,ESE,121,0.0,0.0,94,0.00,,,0.01,0,HR-IXPWINDi_r2_v1.2.,2013-10-11 03:39:00,
2013-10-10 23:44:00,52.1,50.6,30.07,ESE,121,0.0,0.0,95,0.00,,,0.01,0,HR-IXPWINDi_r2_v1.2.,2013-10-11 03:44:00,
2013-10-10 23:49:00,51.5,49.8,30.07,ESE,121,0.0,0.0,94,0.00,,,0.01,0,HR-IXPWINDi_r2_v1.2.,2013-10-11 03:49:00,
2013-10-10 23:54:00,51.2,49.8,30.07,ESE,121,0.0,0.0,95,0.00,,,0.01,0,HR-IXPWINDi_r2_v1.2.,2013-10-11 03:54:00,